Regional Weather Roundup
Issued by NWS

Home | Current Version | Previous Version | Graphics & Text | Print | Product List | Glossary Off
Versions: 1 2 3 4 5 6 7 8 9 10 11 12 13 14 15 16 17 18 19 20 21 22 23 24 25 26 27 28 29 30 31 32 33 34 35 36 37 38 39 40 41 42 43 44 45 46 47 48 49 50

025
ASUS43 KDTX 290310
RWRMI
MICHIGAN HOURLY REGIONAL WEATHER ROUNDUP
NATIONAL WEATHER SERVICE DETROIT/PONTIAC MI
1100 PM EDT THU APR 28 2016

NOTE: "FAIR" INDICATES FEW OR NO CLOUDS BELOW 12,000 FEET WITH NO
SIGNIFICANT WEATHER AND/OR OBSTRUCTION TO VISIBILITY.

MIZ047>049-052>055-059>063-066>070-074>076-081>083-290400-
SOUTHEAST LOWER MICHIGAN

CITY           SKY/WX    TMP DP  RH WIND       PRES   REMARKS
ADRIAN         CLOUDY    46  35  65 E7        30.01R
ALMA           CLOUDY    40  35  83 N10       30.06S WCI  33
ANN ARBOR      CLOUDY    47  30  51 NE8       30.00S
BAD AXE        CLOUDY    39  32  76 CALM      30.07S
CARO           CLOUDY    40  31  68 NE3       30.05S
DETROIT CITY   CLOUDY    47  31  53 NE7       30.02S
DETROIT        CLOUDY    48  29  47 N5        30.02R
FLINT          CLOUDY    47  29  49 NE9       30.04R
GROSSE ILE     MIX PCPN  46  36  66 NE5       30.00S
HILLSDALE      CLOUDY    45  35  69 E7        30.01R
HOWELL         CLOUDY    46  29  52 NE3       30.02S

CITY           SKY/WX    TMP DP  RH WIND       PRES   REMARKS
JACKSON        CLOUDY    45  36  70 CALM      30.01S
LAMBERTVILLE   CLOUDY    49  35  59 E8        30.00S
LANSING        CLOUDY    43  36  76 N8        30.03S
LAPEER         CLOUDY    41  32  69 CALM      30.04S
MASON          CLOUDY    45  33  63 NE3       30.02S
MONROE         CLOUDY    47  36  66 NE5       30.01R
PONTIAC        CLOUDY    45  28  51 NE9       30.01S
PORT HOPE        N/A     40  34  79 NE10      30.05S WCI  33
PORT HURON     MOCLDY    43  32  65 N5        30.03S
TRI CITIES     CLOUDY    43  34  70 NE13      30.07S
MIDLAND        CLOUDY    40  32  73 NE5       30.07S
TROY           CLOUDY    47  29  49 NE10      30.03F
SAGINAW HB     CLOUDY    41  32  70 NE9       30.06S
$$
MIZ043>046-050>051-056>058-064>065-071>073-077>080-290400-
SOUTHWEST LOWER MICHIGAN

CITY           SKY/WX    TMP DP  RH WIND       PRES   REMARKS
BATTLE CREEK   CLOUDY    46  34  62 E6        30.03R
BENTON HARBOR  CLOUDY    47  41  80 E10       29.99R
BIG RAPIDS     CLOUDY    41  32  69 E9        30.05S
COLDWATER      CLOUDY    46  37  72 E3        30.01S
FREMONT        CLOUDY    41  34  77 E8        30.04S
HOLLAND        CLOUDY    44  36  73 E7        30.03R
GRAND RAPIDS   LGT RAIN  43  36  76 E10       30.04S
IONIA          CLOUDY    40  35  81 NE7       30.04S
KALAMAZOO      CLOUDY    47  36  65 E6        30.02R
LUDINGTON      CLOUDY    42  33  69 E6        30.06S
MARSHALL       CLOUDY    45  34  66 CALM      30.02R
MOUNT PLEASANT CLOUDY    39  33  78 NE6       30.06S WCI  35
MUSKEGON       CLOUDY    43  35  73 E8        30.03F
SOUTH HAVEN    CLOUDY    45  42  90 E7        30.01R
$$
MIZ016>042-290400-
NORTHERN LOWER MICHIGAN

CITY           SKY/WX    TMP DP  RH WIND       PRES   REMARKS
ALPENA         PTCLDY    34  26  72 CALM      30.10S
BEAVER ISLAND  MOCLDY    41  23  48 NE7       30.10R
BELLAIRE       CLOUDY    47  24  39 CALM      30.07F
CADILLAC       CLOUDY    40  32  72 CALM      30.05S
CHARLEVOIX     PTCLDY    44  25  46 SE6       30.10S
GAYLORD        CLOUDY    43  15  32 E3        30.06S
GRAYLING       CLOUDY    43  22  43 E7        30.07S
HARBOR SPRINGS CLOUDY    40  21  45 NE6       30.09R
HOUGHTON LAKE  CLOUDY    41  26  55 E6        30.06R
MANISTEE       CLOUDY    43  28  56 E8        30.08R
OSCODA         CLOUDY    41  28  61 N5        30.08S
PELLSTON       PTCLDY    38  21  50 NE6       30.10R WCI  33
ROGERS CITY    PTCLDY    34  31  88 CALM      30.11S
TRAVERSE CITY  CLOUDY    43  37  79 CALM      30.07R
$$
MIZ007>008-015-290400-
EASTERN UPPER MICHIGAN

CITY           SKY/WX    TMP DP  RH WIND       PRES   REMARKS
KINROSS          N/A     39  28  65 CALM      30.11R
MACKINAC ISLAN CLOUDY    37  22  55 E8        30.10S WCI  30
NEWBERRY       CLOUDY    39  31  73 CALM      30.11S
S. S. MARIE    CLEAR     40  30  67 CALM      30.10S
MUNISING         N/A     38  32  79 NW3       30.13R
$$
MIZ004>006-011>014-085-290400-
CENTRAL UPPER MICHIGAN

CITY           SKY/WX    TMP DP  RH WIND       PRES   REMARKS
MANISTIQUE     PTCLDY    37  26  62 N5        30.10S WCI  34
ESCANABA       CLOUDY    46  25  42 NE9       30.10S
MENOMINEE      CLOUDY    43  28  56 N9        30.09R
SAWYER-GWINN   CLOUDY    32  28  85 N5        30.10S WCI  28
$$
MIZ001>003-009>011-084-290400-
WESTERN UPPER MICHIGAN

CITY           SKY/WX    TMP DP  RH WIND       PRES   REMARKS
IRON MOUNTAIN  CLOUDY    43  24  47 N6        30.09R
HOUGHTON       PTCLDY    34  28  79 CALM      30.11S
COPPER HARBOR    N/A     33  28  81 W3        30.13S
IRONWOOD       MOCLDY    36  28  75 CALM      30.08S
$$

ABBREVIATIONS USED IN REMARKS
   TC - TEMPERATURE IN CELSIUS
  WCI - WIND CHILL INDEX
   HX - HEAT INDEX
  VSB - VISIBILITY





USA.gov is the U.S. government's official web portal to all federal, state and local government web resources and services.